Temp
64 63 62 61 61 62 62 63 61 61 62 62 62 62 62 61 60 60 59 59 59 58 58 58 57 57 56 56 56 56 55 55 55 54 53 54 54 54 54 54 54 54 54 54 55 54 54 54 54 54 54 53 53 53 53 53 53 53 53 53 53 53 53 52 52 52 53 54 54
64 63 61 58 58 60 61 61 60 60 61 62 62 62 61 61 60 59 59 59 59 58 58 57 57 56 56 56 56 55 55 54 54 54 53 54 54 54 54 54 54 54 54 55 55 54 54 54 54 54 54 54 53 53 53 53 53 52 52 52 52 53 53 52 52 53 53 53 53
63 62 61 60 60 60 60 60 60 60 61 61 61 61 61 60 60 59 59 59 58 58 57 57 56 56 56 56 55 55 54 54 54 54 53 53 54 54 53 53 53 53 53 54 54 54 54 53 53 53 54 54 53 53 53 54 53 52 52 52 52 53 53 53 52 52 52 52 53
62 61 61 61 61 61 60 60 60 60 60 60 61 61 60 60 59 59 58 58 57 57 56 56 56 56 55 55 55 55 54 54 54 53 53 53 53 53 53 53 53 53 53 54 54 53 53 53 53 53 53 53 53 53 53 54 53 52 52 52 52 52 52 52 52 52 52 52 52
61 61 61 60 61 60 60 59 59 60 60 60 60 59 59 59 58 58 57 56 57 56 56 55 56 56 55 55 55 55 54 54 53 53 53 52 53 53 53 53 52 52 53 53 53 53 53 53 53 53 53 52 53 53 53 53 53 52 52 52 52 52 52 52 52 52 51 51 51
61 61 60 60 60 60 60 59 60 60 60 59 59 58 58 58 58 57 57 56 56 56 55 54 54 54 54 55 55 54 54 54 53 53 53 53 53 53 53 52 52 52 52 52 53 53 53 53 52 52 52 52 52 53 53 54 53 52 52 52 52 52 51 51 51 51 50 50 50
61 61 61 60 60 60 59 59 59 59 59 58 58 58 57 57 57 57 56 56 55 55 54 52 53 53 54 54 54 54 54 54 54 54 53 53 53 52 52 52 52 52 52 52 52 52 52 51 51 51 51 51 52 52 52 53 52 51 51 50 51 51 50 50 50 50 49 48 48
62 61 61 61 60 60 59 59 59 59 58 58 57 57 57 56 56 56 56 55 54 54 53 53 54 54 54 54 53 53 53 53 53 53 53 53 52 52 52 52 52 52 52 52 52 51 51 51 51 50 50 50 51 51 51 52 51 51 50 50 50 50 50 50 49 49 48 47 47
60 60 60 60 60 59 59 59 59 58 58 57 57 57 57 56 56 56 55 54 54 54 53 53 54 54 54 54 53 53 53 53 53 53 53 52 52 52 52 51 51 51 51 52 52 51 51 51 50 50 50 50 49 49 49 51 50 50 49 49 49 49 49 49 49 48 47 46 46
59 59 59 59 59 59 59 58 58 58 58 57 58 57 56 54 55 55 55 54 54 54 54 53 53 53 54 53 53 53 53 53 53 53 53 52 52 52 52 51 51 51 51 51 51 51 50 49 49 48 48 48 48 48 48 49 49 49 48 48 48 49 49 49 49 48 47 46 45
58 58 58 58 59 58 58 58 57 57 57 57 57 56 55 54 55 55 54 54 54 53 54 54 54 53 53 53 53 53 52 52 52 53 53 53 53 53 52 52 52 51 51 51 51 50 49 48 47 47 47 47 47 47 48 48 48 47 47 47 47 47 48 48 48 48 47 46 45
58 58 58 58 58 58 57 57 56 56 56 56 55 56 56 55 55 55 54 54 53 53 54 54 54 53 53 52 52 52 52 52 53 53 53 53 53 53 53 52 52 52 52 51 50 49 49 48 47 47 47 46 46 46 46 47 47 46 46 46 46 45 46 46 47 47 47 46 45
58 58 57 57 57 57 56 56 55 55 55 55 55 55 56 55 55 54 53 53 53 53 54 54 54 53 53 53 53 53 53 53 53 53 53 53 53 53 53 53 52 52 51 50 50 49 48 47 47 47 46 46 46 46 46 46 46 45 45 45 44 44 44 45 46 46 46 46 44
58 57 57 56 56 55 54 54 54 54 54 54 54 55 55 55 54 54 53 53 53 53 53 53 53 53 53 53 53 53 54 54 54 54 54 53 53 53 53 52 52 51 51 50 49 49 48 48 47 47 47 46 46 46 46 46 45 45 44 44 43 43 43 44 44 45 45 45 44
56 56 56 55 54 54 53 53 53 54 54 53 54 54 54 54 54 53 53 53 53 53 52 53 53 53 53 54 54 54 54 54 54 54 54 53 53 53 53 52 52 51 50 50 49 49 49 48 47 47 47 47 46 46 46 46 45 45 44 43 43 43 42 43 43 43 44 44 43
55 55 55 54 54 53 53 53 53 53 53 53 53 54 54 54 54 53 52 52 52 52 52 52 53 53 53 53 53 54 54 54 54 54 54 53 53 53 53 52 52 51 50 50 49 49 49 48 48 48 47 47 47 46 46 46 45 45 44 44 43 43 42 42 42 42 42 43 42
54 54 54 53 53 53 52 52 52 52 53 53 53 53 53 53 52 52 51 52 52 52 52 52 52 52 52 51 52 52 53 53 53 53 53 53 53 53 52 52 52 51 51 50 49 49 49 48 48 48 47 47 47 46 46 45 45 45 44 44 43 43 42 41 41 41 41 41 40
54 54 53 53 52 52 52 52 52 52 52 53 53 53 53 52 52 52 51 51 51 51 51 51 52 51 51 51 51 51 52 52 53 53 53 53 53 53 53 52 52 51 51 50 49 49 49 49 48 48 47 47 46 46 45 45 45 45 44 44 43 43 42 42 41 40 39 39 39
53 53 53 52 52 52 52 52 52 52 53 53 53 53 53 53 52 52 51 51 51 51 51 50 51 51 51 51 51 51 51 52 53 53 53 54 53 53 53 52 52 51 51 50 50 49 49 49 48 48 47 46 46 46 45 45 45 44 44 43 43 43 42 42 41 40 39 39 39
52 52 52 52 52 52 52 51 52 52 53 53 53 53 53 53 52 52 51 51 51 50 50 50 50 50 50 51 51 51 51 51 52 53 53 53 53 53 53 52 52 51 51 50 49 49 49 48 48 48 47 46 46 45 45 45 44 44 43 43 42 42 42 42 41 40 40 40 40
52 52 52 52 52 52 52 52 52 52 52 52 53 52 52 52 52 51 51 51 50 50 50 49 49 49 50 50 51 51 51 50 51 52 53 53 53 53 53 52 52 51 50 49 49 49 48 48 48 48 47 46 46 45 45 44 44 44 43 42 42 42 42 41 41 40 40 40 40
52 52 52 52 52 52 51 52 52 52 51 51 51 51 51 51 51 51 50 50 50 50 49 49 49 49 50 50 50 50 50 49 50 51 51 52 52 52 52 51 50 50 49 48 48 48 48 48 48 48 47 46 46 45 45 44 44 43 43 42 42 42 41 41 41 40 40 40 40
52 52 52 52 52 51 50 51 51 51 50 50 50 50 50 50 50 50 50 49 49 49 49 49 49 49 50 50 50 50 49 49 49 50 51 51 51 51 51 50 49 48 48 48 48 48 48 47 47 47 47 46 46 45 45 45 44 44 43 42 42 42 41 41 40 41 41 40 40
52 52 51 51 51 51 50 50 50 50 49 49 49 49 49 49 49 49 48 48 48 48 49 49 49 49 49 50 50 49 49 49 49 49 49 50 50 50 50 49 49 48 48 48 47 47 46 46 46 46 46 46 46 46 45 46 45 44 43 43 42 41 41 41 41 41 41 40 40
52 51 51 51 51 50 50 49 49 49 49 49 49 49 48 48 48 48 47 47 47 48 48 48 48 49 49 49 49 48 48 48 48 48 48 48 49 49 49 48 48 47 46 42 40 40 41 43 45 45 46 45 46 46 46 46 46 45 44 43 42 41 40 40 41 42 41 40 40
51 50 50 50 50 49 48 48 48 48 48 48 48 47 47 47 47 47 46 46 46 47 47 47 47 47 47 48 48 47 47 47 47 47 47 48 48 48 48 48 47 46 44 39 38 37 38 38 39 40 43 46 46 45 46 46 46 46 45 44 43 41 41 40 40 40 40 40 39
49 48 48 48 48 48 47 47 47 47 47 46 46 46 46 46 46 46 45 45 46 46 46 46 46 45 45 47 47 46 46 46 47 47 47 47 48 47 47 47 47 45 42 38 37 37 38 38 37 38 41 47 45 45 45 46 46 46 45 44 43 42 41 40 40 40 40 40 38
47 47 47 47 46 46 46 46 46 45 45 45 44 44 45 45 44 44 43 43 44 45 45 45 46 46 46 46 46 46 46 46 46 46 47 47 47 47 47 47 45 42 39 38 38 38 38 38 38 37 37 39 44 45 46 46 46 45 45 45 44 43 42 41 41 40 40 39 39
47 47 46 46 45 45 45 45 44 44 44 44 44 44 43 43 43 42 42 43 43 43 43 44 45 45 45 45 45 45 46 46 46 46 46 46 46 47 47 46 42 39 38 38 38 39 39 39 38 36 36 38 44 46 46 45 45 45 45 45 44 44 43 43 42 41 41 40 39
47 46 45 45 45 44 44 43 43 43 43 43 43 42 42 41 41 41 41 41 42 42 43 43 43 43 44 44 45 45 45 45 45 46 46 46 46 46 46 44 40 38 38 38 38 39 39 39 38 37 36 36 39 43 45 45 44 44 44 45 45 45 44 44 44 43 42 41 40
46 45 44 44 44 43 43 43 43 43 43 42 41 41 40 40 40 40 40 41 42 42 42 43 42 43 43 44 44 44 44 45 45 45 45 45 45 45 45 41 39 38 37 38 38 38 39 38 37 37 36 35 36 41 45 44 44 44 44 44 45 45 45 45 44 44 43 42 41
45 44 44 43 43 42 42 42 42 42 41 41 40 39 39 39 39 40 41 41 42 42 42 42 42 42 43 43 43 43 43 44 44 44 45 45 46 45 43 39 37 37 37 37 38 38 38 38 37 36 36 35 35 39 43 44 44 44 44 44 45 45 44 43 43 44 44 43 42
45 44 43 42 42 41 41 41 41 41 40 40 39 38 38 38 39 39 40 41 41 41 41 41 41 41 42 42 42 42 43 43 43 43 44 45 45 44 41 37 37 36 36 37 37 37 37 37 37 36 35 35 35 39 42 43 43 43 44 44 44 44 44 44 43 43 43 43 43
44 43 42 41 41 40 40 40 40 40 39 38 38 38 37 37 38 38 39 40 40 41 41 41 41 41 42 42 42 42 42 43 43 43 44 45 45 42 39 37 36 36 36 36 36 36 36 36 36 36 35 35 36 39 42 43 43 43 43 43 42 42 42 42 42 42 42 42 42
43 42 41 41 40 40 39 39 39 38 38 37 37 37 37 37 37 38 38 39 39 40 40 40 40 40 41 41 42 42 42 42 42 43 43 44 43 40 37 35 35 35 35 35 36 36 36 36 36 36 35 34 36 39 42 43 42 42 42 42 41 41 41 41 41 41 41 42 42
43 41 41 40 39 39 38 38 37 37 37 36 36 37 37 38 38 38 38 38 38 38 38 38 38 39 39 40 40 40 40 41 42 42 42 43 41 39 36 34 34 34 34 35 35 35 36 36 36 35 35 35 36 39 41 41 41 41 41 40 40 40 40 40 40 40 40 40 40
42 40 40 39 38 38 37 37 37 36 36 36 36 36 37 37 37 38 38 37 37 37 37 37 37 37 38 38 38 38 39 39 39 40 41 41 40 37 35 33 33 33 34 35 35 35 35 35 35 35 35 35 37 39 41 41 40 40 40 39 39 39 39 39 39 38 38 37 37
40 39 38 38 37 37 36 36 36 36 36 36 36 37 37 37 37 37 37 37 37 36 36 36 36 37 37 37 37 38 38 39 39 39 40 40 39 37 35 33 33 33 33 35 35 35 35 35 35 35 35 35 38 40 40 40 39 39 39 39 38 38 38 38 37 36 35 34 34
38 37 37 36 36 36 36 36 35 35 35 36 36 36 37 37 37 37 37 36 37 36 36 36 36 36 37 37 37 37 38 38 38 39 39 40 39 37 35 33 33 33 33 34 35 35 35 35 35 35 35 34 38 40 40 39 39 38 38 38 37 37 37 37 36 34 33 32 34
36 36 36 35 35 35 35 35 35 35 35 36 36 36 36 37 37 37 37 37 37 37 36 36 37 37 37 36 36 37 37 38 38 39 39 40 39 37 35 33 33 33 33 34 35 35 35 35 35 35 34 33 38 40 40 39 38 38 38 37 37 37 36 36 34 33 31 31 32
36 36 35 35 35 35 34 34 35 35 36 36 35 36 36 37 37 37 36 36 37 36 36 36 37 37 36 36 36 36 37 37 38 38 39 39 39 37 35 34 33 33 33 34 34 35 35 35 35 35 34 33 37 39 40 39 38 37 37 37 37 36 36 35 33 32 31 30 30
MSLP
1016.71 1016.95 1017.15 1017.35 1017.55 1017.67 1017.83 1017.91 1018.03 1018.15 1018.23 1018.43 1018.59 1018.79 1018.95 1019.19 1019.43 1019.67 1019.83 1019.95 1020.11 1020.23 1020.35 1020.51 1020.63 1020.79 1020.91 1020.99 1021.11 1021.23 1021.31 1021.39 1021.51 1021.63 1021.71 1021.79 1021.87 1021.95 1022.03 1022.11 1022.19 1022.23 1022.31 1022.39 1022.39 1022.43 1022.51 1022.55 1022.63 1022.67 1022.79 1022.83 1022.91 1022.99 1023.03 1023.03 1022.99 1022.99 1023.03 1023.11 1023.19 1023.27 1023.35 1023.39 1023.47 1023.47 1023.43 1023.39 1023.39
1016.63 1016.83 1017.11 1017.31 1017.47 1017.63 1017.75 1017.87 1017.99 1018.11 1018.23 1018.39 1018.55 1018.71 1018.91 1019.11 1019.35 1019.55 1019.71 1019.87 1019.99 1020.15 1020.31 1020.47 1020.63 1020.75 1020.91 1020.99 1021.11 1021.27 1021.39 1021.51 1021.59 1021.67 1021.75 1021.83 1021.91 1021.99 1022.07 1022.11 1022.19 1022.23 1022.31 1022.35 1022.39 1022.51 1022.55 1022.63 1022.67 1022.79 1022.83 1022.87 1022.95 1023.03 1023.11 1023.07 1023.11 1023.11 1023.15 1023.27 1023.27 1023.35 1023.39 1023.47 1023.55 1023.55 1023.55 1023.55 1023.51
1016.51 1016.75 1016.95 1017.19 1017.39 1017.55 1017.67 1017.87 1018.03 1018.11 1018.23 1018.39 1018.55 1018.67 1018.87 1019.11 1019.27 1019.47 1019.67 1019.83 1019.95 1020.15 1020.31 1020.51 1020.67 1020.79 1020.91 1021.03 1021.19 1021.35 1021.47 1021.55 1021.67 1021.71 1021.79 1021.87 1021.95 1022.07 1022.15 1022.19 1022.23 1022.31 1022.35 1022.39 1022.47 1022.55 1022.59 1022.67 1022.75 1022.79 1022.83 1022.87 1022.95 1023.03 1023.11 1023.11 1023.15 1023.23 1023.31 1023.39 1023.39 1023.43 1023.51 1023.55 1023.63 1023.67 1023.67 1023.67 1023.67
1016.39 1016.63 1016.87 1017.11 1017.27 1017.47 1017.67 1017.83 1018.03 1018.15 1018.27 1018.39 1018.55 1018.67 1018.83 1019.03 1019.27 1019.43 1019.63 1019.83 1019.99 1020.19 1020.35 1020.51 1020.63 1020.75 1020.91 1021.07 1021.27 1021.39 1021.47 1021.55 1021.67 1021.75 1021.83 1021.95 1022.03 1022.11 1022.23 1022.27 1022.39 1022.39 1022.39 1022.43 1022.51 1022.59 1022.67 1022.71 1022.79 1022.83 1022.87 1022.91 1022.95 1023.03 1023.11 1023.11 1023.23 1023.31 1023.39 1023.43 1023.51 1023.55 1023.63 1023.67 1023.71 1023.75 1023.79 1023.83 1023.83
1016.39 1016.59 1016.83 1016.99 1017.19 1017.39 1017.63 1017.83 1018.07 1018.23 1018.35 1018.43 1018.59 1018.79 1018.95 1019.11 1019.31 1019.51 1019.71 1019.91 1020.11 1020.23 1020.39 1020.47 1020.59 1020.75 1020.95 1021.07 1021.27 1021.39 1021.51 1021.59 1021.71 1021.83 1021.91 1021.99 1022.11 1022.19 1022.23 1022.35 1022.43 1022.47 1022.55 1022.55 1022.59 1022.67 1022.71 1022.75 1022.83 1022.91 1022.95 1022.95 1023.03 1023.07 1023.11 1023.15 1023.27 1023.39 1023.47 1023.55 1023.59 1023.67 1023.71 1023.79 1023.83 1023.87 1023.95 1023.95 1023.95
1016.47 1016.67 1016.87 1017.07 1017.27 1017.47 1017.67 1017.87 1018.11 1018.23 1018.39 1018.55 1018.71 1018.91 1019.11 1019.27 1019.43 1019.59 1019.75 1019.95 1020.11 1020.23 1020.39 1020.47 1020.63 1020.79 1020.95 1021.11 1021.27 1021.43 1021.55 1021.63 1021.71 1021.83 1021.91 1021.99 1022.11 1022.23 1022.31 1022.39 1022.51 1022.55 1022.63 1022.67 1022.67 1022.71 1022.75 1022.83 1022.91 1022.99 1023.07 1023.11 1023.11 1023.11 1023.11 1023.11 1023.27 1023.39 1023.55 1023.63 1023.71 1023.79 1023.83 1023.91 1023.95 1023.99 1024.07 1024.11 1024.15
1016.55 1016.79 1016.99 1017.23 1017.39 1017.55 1017.79 1017.95 1018.11 1018.27 1018.47 1018.67 1018.83 1019.03 1019.19 1019.39 1019.55 1019.67 1019.83 1020.03 1020.15 1020.31 1020.43 1020.55 1020.67 1020.79 1020.95 1021.11 1021.27 1021.43 1021.55 1021.67 1021.79 1021.83 1021.95 1022.03 1022.15 1022.27 1022.39 1022.43 1022.55 1022.63 1022.67 1022.71 1022.79 1022.83 1022.87 1022.95 1023.03 1023.11 1023.15 1023.23 1023.23 1023.23 1023.19 1023.23 1023.27 1023.43 1023.59 1023.75 1023.83 1023.91 1023.95 1024.07 1024.11 1024.15 1024.23 1024.31 1024.39
1016.63 1016.83 1017.11 1017.27 1017.47 1017.67 1017.83 1018.03 1018.19 1018.35 1018.55 1018.79 1018.95 1019.11 1019.27 1019.43 1019.55 1019.71 1019.91 1020.11 1020.23 1020.39 1020.51 1020.55 1020.67 1020.79 1020.91 1021.11 1021.31 1021.43 1021.55 1021.67 1021.75 1021.83 1021.95 1022.11 1022.15 1022.27 1022.39 1022.47 1022.59 1022.67 1022.71 1022.79 1022.83 1022.83 1022.91 1022.99 1023.11 1023.15 1023.23 1023.31 1023.39 1023.39 1023.35 1023.31 1023.35 1023.47 1023.63 1023.83 1023.91 1023.99 1024.07 1024.11 1024.23 1024.31 1024.39 1024.47 1024.55
1016.71 1016.91 1017.11 1017.35 1017.55 1017.71 1017.87 1018.07 1018.23 1018.39 1018.63 1018.79 1018.95 1019.11 1019.27 1019.43 1019.59 1019.75 1019.95 1020.15 1020.31 1020.43 1020.51 1020.55 1020.67 1020.79 1020.95 1021.15 1021.31 1021.47 1021.59 1021.67 1021.75 1021.87 1021.99 1022.11 1022.23 1022.31 1022.39 1022.51 1022.59 1022.67 1022.71 1022.79 1022.83 1022.87 1022.95 1023.07 1023.15 1023.23 1023.31 1023.39 1023.51 1023.55 1023.51 1023.43 1023.47 1023.55 1023.67 1023.83 1023.95 1024.03 1024.11 1024.19 1024.27 1024.39 1024.51 1024.59 1024.63
1016.79 1016.99 1017.19 1017.39 1017.55 1017.75 1017.95 1018.11 1018.27 1018.47 1018.63 1018.83 1018.95 1019.11 1019.31 1019.47 1019.59 1019.75 1019.95 1020.11 1020.27 1020.39 1020.51 1020.55 1020.67 1020.83 1020.95 1021.19 1021.35 1021.47 1021.55 1021.67 1021.75 1021.91 1022.03 1022.11 1022.23 1022.35 1022.43 1022.55 1022.59 1022.67 1022.71 1022.79 1022.83 1022.91 1022.99 1023.11 1023.23 1023.31 1023.39 1023.55 1023.63 1023.67 1023.67 1023.59 1023.67 1023.71 1023.79 1023.87 1023.95 1024.03 1024.11 1024.23 1024.31 1024.47 1024.59 1024.67 1024.71
1016.83 1017.03 1017.27 1017.47 1017.63 1017.83 1017.99 1018.19 1018.35 1018.51 1018.67 1018.83 1018.99 1019.19 1019.35 1019.51 1019.63 1019.79 1019.95 1020.11 1020.23 1020.39 1020.43 1020.51 1020.67 1020.83 1020.99 1021.19 1021.35 1021.47 1021.59 1021.67 1021.79 1021.95 1022.03 1022.15 1022.23 1022.35 1022.39 1022.51 1022.59 1022.63 1022.67 1022.79 1022.83 1022.95 1023.11 1023.23 1023.35 1023.47 1023.59 1023.67 1023.75 1023.79 1023.83 1023.83 1023.83 1023.87 1023.95 1023.99 1024.07 1024.11 1024.19 1024.27 1024.39 1024.51 1024.63 1024.75 1024.83
1016.91 1017.11 1017.27 1017.51 1017.67 1017.83 1018.07 1018.23 1018.39 1018.55 1018.67 1018.83 1019.03 1019.19 1019.35 1019.47 1019.63 1019.75 1019.91 1020.07 1020.19 1020.27 1020.39 1020.47 1020.67 1020.83 1021.03 1021.19 1021.35 1021.51 1021.63 1021.71 1021.83 1021.91 1022.03 1022.15 1022.23 1022.35 1022.39 1022.47 1022.55 1022.59 1022.67 1022.83 1022.91 1023.03 1023.19 1023.31 1023.43 1023.59 1023.67 1023.79 1023.87 1023.95 1023.95 1023.95 1023.99 1024.07 1024.11 1024.15 1024.23 1024.31 1024.39 1024.43 1024.47 1024.55 1024.67 1024.83 1024.91
1016.99 1017.19 1017.39 1017.55 1017.71 1017.91 1018.11 1018.27 1018.43 1018.55 1018.67 1018.83 1019.03 1019.15 1019.31 1019.43 1019.59 1019.75 1019.91 1019.99 1020.11 1020.23 1020.31 1020.47 1020.67 1020.83 1021.03 1021.19 1021.35 1021.47 1021.59 1021.67 1021.79 1021.91 1021.99 1022.11 1022.23 1022.31 1022.39 1022.47 1022.55 1022.63 1022.71 1022.83 1022.95 1023.11 1023.27 1023.39 1023.47 1023.63 1023.75 1023.87 1023.95 1023.99 1024.03 1024.11 1024.15 1024.23 1024.23 1024.31 1024.39 1024.51 1024.55 1024.59 1024.63 1024.67 1024.79 1024.87 1024.99
1017.11 1017.31 1017.47 1017.63 1017.83 1017.99 1018.15 1018.31 1018.43 1018.59 1018.71 1018.87 1019.03 1019.11 1019.27 1019.39 1019.55 1019.71 1019.83 1019.87 1019.99 1020.11 1020.27 1020.43 1020.67 1020.83 1020.99 1021.15 1021.27 1021.43 1021.55 1021.67 1021.75 1021.83 1021.95 1022.07 1022.19 1022.27 1022.39 1022.47 1022.59 1022.71 1022.83 1022.95 1023.03 1023.19 1023.31 1023.39 1023.55 1023.67 1023.79 1023.95 1024.03 1024.07 1024.11 1024.23 1024.27 1024.35 1024.39 1024.55 1024.59 1024.67 1024.75 1024.83 1024.83 1024.87 1024.91 1024.99 1025.11
1017.23 1017.39 1017.55 1017.75 1017.91 1018.07 1018.23 1018.35 1018.47 1018.59 1018.71 1018.91 1018.99 1019.11 1019.23 1019.39 1019.51 1019.63 1019.71 1019.83 1019.91 1020.07 1020.23 1020.39 1020.59 1020.75 1020.91 1021.11 1021.23 1021.35 1021.47 1021.55 1021.63 1021.75 1021.87 1021.95 1022.11 1022.23 1022.35 1022.47 1022.63 1022.75 1022.87 1023.03 1023.15 1023.27 1023.35 1023.47 1023.55 1023.67 1023.83 1023.95 1024.03 1024.11 1024.19 1024.27 1024.39 1024.47 1024.55 1024.67 1024.79 1024.87 1024.95 1024.99 1025.03 1025.03 1025.07 1025.15 1025.27
1017.27 1017.43 1017.63 1017.83 1017.95 1018.11 1018.27 1018.43 1018.55 1018.63 1018.71 1018.87 1018.95 1019.07 1019.19 1019.35 1019.47 1019.59 1019.67 1019.75 1019.87 1019.99 1020.15 1020.31 1020.47 1020.67 1020.87 1021.03 1021.15 1021.27 1021.35 1021.43 1021.55 1021.63 1021.75 1021.87 1022.03 1022.15 1022.31 1022.47 1022.63 1022.79 1022.91 1023.07 1023.23 1023.35 1023.43 1023.55 1023.63 1023.71 1023.83 1023.95 1024.07 1024.15 1024.23 1024.39 1024.47 1024.55 1024.67 1024.83 1024.95 1025.03 1025.11 1025.19 1025.23 1025.27 1025.27 1025.31 1025.39
1017.27 1017.47 1017.63 1017.83 1017.95 1018.11 1018.27 1018.43 1018.55 1018.67 1018.75 1018.83 1018.95 1019.07 1019.19 1019.31 1019.47 1019.59 1019.67 1019.71 1019.83 1019.95 1020.07 1020.19 1020.39 1020.55 1020.79 1020.95 1021.03 1021.15 1021.27 1021.35 1021.43 1021.55 1021.63 1021.79 1021.91 1022.07 1022.23 1022.43 1022.59 1022.79 1022.95 1023.11 1023.27 1023.39 1023.51 1023.59 1023.67 1023.79 1023.87 1023.99 1024.11 1024.23 1024.35 1024.47 1024.55 1024.67 1024.79 1024.91 1025.03 1025.15 1025.27 1025.39 1025.43 1025.51 1025.55 1025.55 1025.59
1017.35 1017.51 1017.63 1017.75 1017.91 1018.07 1018.19 1018.35 1018.51 1018.63 1018.71 1018.83 1018.91 1019.03 1019.15 1019.31 1019.47 1019.59 1019.67 1019.71 1019.79 1019.83 1019.95 1020.11 1020.23 1020.43 1020.67 1020.83 1020.95 1021.11 1021.15 1021.27 1021.35 1021.39 1021.55 1021.67 1021.83 1021.95 1022.15 1022.35 1022.55 1022.71 1022.87 1023.07 1023.27 1023.39 1023.55 1023.67 1023.75 1023.83 1023.95 1024.07 1024.19 1024.31 1024.43 1024.55 1024.63 1024.75 1024.87 1024.95 1025.11 1025.27 1025.39 1025.51 1025.59 1025.67 1025.75 1025.79 1025.83
1017.39 1017.51 1017.67 1017.79 1017.87 1017.99 1018.15 1018.27 1018.39 1018.51 1018.59 1018.71 1018.83 1018.95 1019.15 1019.31 1019.43 1019.59 1019.71 1019.79 1019.83 1019.87 1019.91 1020.07 1020.23 1020.39 1020.55 1020.71 1020.87 1020.95 1021.07 1021.15 1021.23 1021.31 1021.43 1021.55 1021.67 1021.87 1022.07 1022.23 1022.47 1022.67 1022.83 1023.03 1023.23 1023.39 1023.55 1023.67 1023.79 1023.91 1024.03 1024.15 1024.27 1024.39 1024.55 1024.63 1024.71 1024.83 1024.95 1025.11 1025.23 1025.35 1025.47 1025.59 1025.67 1025.79 1025.87 1025.95 1025.99
1017.27 1017.47 1017.63 1017.79 1017.87 1017.99 1018.15 1018.23 1018.35 1018.39 1018.51 1018.63 1018.79 1018.95 1019.11 1019.27 1019.39 1019.59 1019.71 1019.83 1019.91 1019.91 1019.95 1020.03 1020.15 1020.31 1020.47 1020.63 1020.75 1020.87 1020.99 1021.07 1021.11 1021.23 1021.35 1021.43 1021.59 1021.75 1021.95 1022.15 1022.35 1022.55 1022.79 1022.95 1023.19 1023.39 1023.55 1023.67 1023.83 1023.95 1024.11 1024.23 1024.39 1024.51 1024.59 1024.67 1024.79 1024.95 1025.07 1025.19 1025.35 1025.43 1025.55 1025.67 1025.83 1025.91 1025.95 1026.03 1026.11
1017.15 1017.35 1017.55 1017.67 1017.83 1017.99 1018.15 1018.23 1018.35 1018.39 1018.47 1018.59 1018.71 1018.87 1019.03 1019.23 1019.39 1019.55 1019.67 1019.79 1019.91 1019.95 1019.99 1020.07 1020.15 1020.23 1020.39 1020.55 1020.67 1020.79 1020.87 1020.95 1021.11 1021.19 1021.27 1021.39 1021.55 1021.67 1021.83 1022.07 1022.27 1022.51 1022.71 1022.95 1023.15 1023.35 1023.55 1023.67 1023.83 1023.95 1024.11 1024.23 1024.39 1024.55 1024.63 1024.75 1024.83 1024.95 1025.11 1025.31 1025.43 1025.55 1025.67 1025.79 1025.91 1025.99 1026.07 1026.11 1026.23
1017.11 1017.27 1017.43 1017.63 1017.79 1017.95 1018.15 1018.27 1018.39 1018.43 1018.55 1018.63 1018.71 1018.83 1018.99 1019.15 1019.31 1019.51 1019.63 1019.75 1019.87 1019.95 1020.03 1020.11 1020.15 1020.23 1020.31 1020.43 1020.55 1020.67 1020.79 1020.95 1021.07 1021.15 1021.27 1021.39 1021.51 1021.67 1021.83 1022.03 1022.23 1022.47 1022.67 1022.91 1023.11 1023.31 1023.51 1023.67 1023.83 1023.95 1024.11 1024.27 1024.39 1024.55 1024.67 1024.79 1024.87 1024.99 1025.11 1025.35 1025.51 1025.63 1025.75 1025.87 1025.95 1026.11 1026.15 1026.23 1026.35
1017.07 1017.27 1017.47 1017.63 1017.75 1017.95 1018.11 1018.27 1018.39 1018.51 1018.59 1018.71 1018.79 1018.87 1018.99 1019.11 1019.27 1019.43 1019.55 1019.71 1019.83 1019.95 1019.99 1020.07 1020.15 1020.23 1020.27 1020.39 1020.47 1020.59 1020.75 1020.91 1020.99 1021.15 1021.27 1021.39 1021.51 1021.67 1021.83 1022.07 1022.23 1022.43 1022.63 1022.83 1023.03 1023.27 1023.47 1023.67 1023.83 1023.95 1024.11 1024.23 1024.39 1024.55 1024.67 1024.75 1024.83 1024.95 1025.11 1025.31 1025.51 1025.67 1025.79 1025.91 1026.03 1026.15 1026.23 1026.35 1026.47
1016.95 1017.19 1017.39 1017.55 1017.75 1017.91 1018.03 1018.19 1018.35 1018.51 1018.67 1018.75 1018.83 1018.95 1019.03 1019.15 1019.27 1019.39 1019.55 1019.67 1019.79 1019.83 1019.95 1020.07 1020.11 1020.19 1020.23 1020.35 1020.43 1020.55 1020.67 1020.83 1020.99 1021.11 1021.27 1021.39 1021.55 1021.71 1021.91 1022.11 1022.27 1022.39 1022.55 1022.71 1022.95 1023.15 1023.39 1023.55 1023.75 1023.95 1024.07 1024.19 1024.31 1024.47 1024.55 1024.67 1024.79 1024.91 1025.07 1025.27 1025.47 1025.67 1025.83 1025.95 1026.03 1026.15 1026.27 1026.39 1026.55
1016.71 1016.95 1017.19 1017.39 1017.63 1017.83 1017.99 1018.15 1018.27 1018.43 1018.59 1018.75 1018.83 1018.95 1019.07 1019.15 1019.27 1019.39 1019.51 1019.63 1019.71 1019.79 1019.87 1019.99 1020.11 1020.19 1020.23 1020.31 1020.43 1020.55 1020.67 1020.83 1020.95 1021.11 1021.27 1021.43 1021.59 1021.75 1021.95 1022.11 1022.23 1022.39 1022.63 1022.95 1023.27 1023.39 1023.43 1023.55 1023.71 1023.83 1023.99 1024.15 1024.23 1024.35 1024.47 1024.55 1024.67 1024.83 1024.99 1025.19 1025.39 1025.63 1025.83 1025.95 1026.03 1026.15 1026.31 1026.47 1026.59
1016.67 1016.83 1017.07 1017.27 1017.51 1017.71 1017.95 1018.11 1018.23 1018.39 1018.55 1018.71 1018.87 1018.99 1019.11 1019.19 1019.27 1019.39 1019.47 1019.55 1019.67 1019.75 1019.83 1019.95 1020.03 1020.15 1020.23 1020.31 1020.43 1020.55 1020.71 1020.83 1020.95 1021.11 1021.27 1021.43 1021.59 1021.79 1021.95 1022.11 1022.23 1022.39 1022.71 1023.11 1023.31 1023.47 1023.59 1023.79 1023.87 1023.95 1023.99 1024.07 1024.19 1024.31 1024.39 1024.51 1024.59 1024.71 1024.91 1025.15 1025.39 1025.55 1025.79 1025.95 1026.07 1026.19 1026.35 1026.47 1026.67
1016.63 1016.83 1017.03 1017.23 1017.43 1017.67 1017.87 1018.07 1018.23 1018.39 1018.59 1018.75 1018.95 1019.07 1019.19 1019.27 1019.39 1019.47 1019.55 1019.63 1019.67 1019.75 1019.83 1019.91 1020.03 1020.15 1020.23 1020.31 1020.47 1020.59 1020.75 1020.83 1020.95 1021.11 1021.23 1021.39 1021.55 1021.75 1021.95 1022.07 1022.19 1022.39 1022.75 1023.11 1023.27 1023.43 1023.63 1023.83 1024.03 1024.11 1024.03 1023.91 1024.11 1024.23 1024.35 1024.43 1024.51 1024.67 1024.83 1025.07 1025.27 1025.47 1025.67 1025.87 1026.03 1026.19 1026.31 1026.47 1026.67
1016.55 1016.79 1017.03 1017.23 1017.43 1017.67 1017.83 1017.99 1018.23 1018.43 1018.63 1018.79 1018.95 1019.11 1019.27 1019.39 1019.55 1019.63 1019.67 1019.75 1019.79 1019.83 1019.87 1019.95 1020.03 1020.11 1020.23 1020.35 1020.47 1020.59 1020.71 1020.83 1020.95 1021.11 1021.23 1021.35 1021.51 1021.67 1021.83 1021.95 1022.11 1022.47 1022.83 1023.11 1023.27 1023.47 1023.67 1023.83 1024.03 1024.19 1024.27 1024.23 1024.11 1024.19 1024.31 1024.39 1024.47 1024.59 1024.75 1024.95 1025.15 1025.35 1025.55 1025.71 1025.87 1026.03 1026.23 1026.43 1026.63
1016.51 1016.75 1016.99 1017.19 1017.39 1017.63 1017.83 1018.03 1018.23 1018.39 1018.55 1018.75 1018.95 1019.15 1019.31 1019.47 1019.63 1019.75 1019.83 1019.87 1019.91 1019.95 1019.95 1019.99 1020.11 1020.15 1020.23 1020.35 1020.47 1020.59 1020.75 1020.83 1020.95 1021.07 1021.19 1021.27 1021.47 1021.59 1021.71 1021.83 1022.15 1022.47 1022.75 1022.99 1023.27 1023.47 1023.67 1023.83 1024.03 1024.23 1024.35 1024.31 1024.11 1024.11 1024.27 1024.35 1024.47 1024.55 1024.67 1024.83 1024.99 1025.15 1025.31 1025.51 1025.67 1025.87 1026.07 1026.27 1026.51
1016.43 1016.67 1016.95 1017.15 1017.39 1017.59 1017.83 1017.99 1018.19 1018.39 1018.59 1018.79 1018.99 1019.23 1019.39 1019.55 1019.67 1019.83 1019.91 1019.95 1020.03 1020.07 1020.07 1020.11 1020.15 1020.23 1020.27 1020.35 1020.47 1020.63 1020.79 1020.83 1020.95 1021.03 1021.15 1021.27 1021.39 1021.51 1021.63 1021.83 1022.15 1022.43 1022.67 1022.95 1023.27 1023.51 1023.71 1023.91 1024.11 1024.27 1024.39 1024.43 1024.39 1024.23 1024.23 1024.35 1024.43 1024.55 1024.63 1024.67 1024.79 1024.91 1025.03 1025.15 1025.39 1025.59 1025.83 1026.07 1026.35
1016.35 1016.63 1016.87 1017.11 1017.35 1017.55 1017.79 1017.95 1018.19 1018.39 1018.63 1018.87 1019.07 1019.27 1019.43 1019.63 1019.71 1019.83 1019.95 1019.99 1020.11 1020.15 1020.19 1020.23 1020.27 1020.27 1020.31 1020.39 1020.51 1020.63 1020.75 1020.83 1020.95 1021.03 1021.11 1021.19 1021.31 1021.39 1021.63 1021.95 1022.19 1022.43 1022.71 1023.03 1023.35 1023.59 1023.83 1023.99 1024.19 1024.31 1024.43 1024.55 1024.55 1024.35 1024.23 1024.31 1024.39 1024.51 1024.55 1024.63 1024.67 1024.67 1024.79 1024.91 1025.11 1025.31 1025.55 1025.79 1026.03
1016.23 1016.55 1016.79 1017.03 1017.27 1017.55 1017.75 1017.95 1018.19 1018.39 1018.63 1018.91 1019.11 1019.31 1019.47 1019.67 1019.79 1019.91 1019.95 1020.07 1020.15 1020.23 1020.35 1020.43 1020.47 1020.47 1020.47 1020.55 1020.59 1020.67 1020.79 1020.87 1020.95 1021.03 1021.11 1021.15 1021.27 1021.43 1021.75 1022.11 1022.27 1022.51 1022.79 1023.11 1023.39 1023.67 1023.91 1024.07 1024.23 1024.39 1024.51 1024.63 1024.63 1024.47 1024.31 1024.31 1024.39 1024.43 1024.51 1024.55 1024.59 1024.67 1024.75 1024.83 1024.99 1025.15 1025.31 1025.51 1025.71
1016.19 1016.47 1016.71 1016.95 1017.23 1017.51 1017.75 1017.95 1018.19 1018.39 1018.67 1018.95 1019.15 1019.35 1019.55 1019.71 1019.87 1019.99 1020.11 1020.15 1020.19 1020.23 1020.39 1020.47 1020.55 1020.55 1020.55 1020.63 1020.67 1020.75 1020.83 1020.91 1020.95 1021.03 1021.11 1021.15 1021.27 1021.51 1021.87 1022.19 1022.39 1022.59 1022.91 1023.23 1023.55 1023.79 1023.95 1024.15 1024.31 1024.47 1024.59 1024.67 1024.71 1024.55 1024.35 1024.31 1024.39 1024.39 1024.43 1024.55 1024.59 1024.67 1024.79 1024.91 1025.03 1025.15 1025.27 1025.39 1025.55
1016.07 1016.39 1016.67 1016.91 1017.19 1017.47 1017.71 1017.95 1018.19 1018.43 1018.67 1018.95 1019.19 1019.39 1019.63 1019.83 1019.95 1020.11 1020.19 1020.23 1020.27 1020.31 1020.39 1020.51 1020.55 1020.59 1020.59 1020.67 1020.67 1020.75 1020.83 1020.91 1020.99 1021.11 1021.15 1021.23 1021.35 1021.63 1021.99 1022.27 1022.47 1022.71 1023.07 1023.35 1023.63 1023.87 1024.07 1024.23 1024.39 1024.55 1024.67 1024.75 1024.79 1024.67 1024.47 1024.39 1024.39 1024.47 1024.55 1024.67 1024.75 1024.83 1024.91 1024.99 1025.11 1025.27 1025.35 1025.43 1025.51
1015.95 1016.27 1016.59 1016.87 1017.11 1017.39 1017.67 1017.95 1018.19 1018.43 1018.67 1018.99 1019.27 1019.47 1019.67 1019.87 1020.03 1020.15 1020.23 1020.35 1020.39 1020.47 1020.55 1020.63 1020.67 1020.67 1020.71 1020.71 1020.71 1020.75 1020.83 1020.91 1021.07 1021.19 1021.27 1021.31 1021.51 1021.83 1022.11 1022.39 1022.55 1022.83 1023.19 1023.51 1023.75 1023.95 1024.11 1024.27 1024.39 1024.55 1024.67 1024.83 1024.83 1024.71 1024.55 1024.47 1024.55 1024.59 1024.67 1024.79 1024.91 1025.03 1025.11 1025.23 1025.31 1025.39 1025.47 1025.55 1025.55
1015.83 1016.15 1016.51 1016.83 1017.11 1017.39 1017.67 1017.91 1018.15 1018.43 1018.67 1018.95 1019.23 1019.43 1019.67 1019.87 1020.07 1020.23 1020.35 1020.47 1020.55 1020.59 1020.67 1020.75 1020.83 1020.83 1020.83 1020.79 1020.79 1020.79 1020.83 1020.95 1021.07 1021.23 1021.35 1021.43 1021.67 1021.95 1022.27 1022.55 1022.75 1022.99 1023.31 1023.59 1023.83 1023.95 1024.11 1024.23 1024.39 1024.55 1024.67 1024.83 1024.87 1024.75 1024.63 1024.55 1024.59 1024.67 1024.83 1024.95 1025.07 1025.23 1025.31 1025.39 1025.47 1025.55 1025.67 1025.71 1025.75
1015.67 1016.03 1016.39 1016.67 1017.03 1017.31 1017.59 1017.83 1018.11 1018.39 1018.63 1018.91 1019.15 1019.39 1019.59 1019.83 1020.07 1020.23 1020.39 1020.55 1020.63 1020.67 1020.75 1020.83 1020.87 1020.91 1020.83 1020.83 1020.83 1020.83 1020.83 1020.95 1021.15 1021.35 1021.47 1021.63 1021.83 1022.11 1022.39 1022.67 1022.95 1023.23 1023.43 1023.67 1023.83 1023.95 1024.11 1024.23 1024.39 1024.55 1024.67 1024.83 1024.87 1024.79 1024.67 1024.59 1024.67 1024.79 1024.91 1025.11 1025.23 1025.35 1025.43 1025.55 1025.67 1025.83 1025.95 1026.11 1026.15
1015.59 1015.91 1016.23 1016.55 1016.91 1017.23 1017.51 1017.75 1018.03 1018.27 1018.55 1018.79 1019.07 1019.27 1019.51 1019.71 1019.95 1020.15 1020.35 1020.55 1020.63 1020.71 1020.83 1020.87 1020.95 1020.95 1020.91 1020.87 1020.83 1020.83 1020.91 1021.03 1021.23 1021.39 1021.55 1021.71 1021.91 1022.15 1022.43 1022.75 1023.03 1023.31 1023.55 1023.75 1023.87 1023.95 1024.11 1024.19 1024.39 1024.55 1024.67 1024.83 1024.83 1024.71 1024.63 1024.67 1024.75 1024.87 1024.99 1025.15 1025.31 1025.43 1025.55 1025.67 1025.87 1026.11 1026.35 1026.47 1026.51
1015.51 1015.83 1016.15 1016.47 1016.83 1017.11 1017.39 1017.67 1017.91 1018.19 1018.43 1018.67 1018.95 1019.19 1019.39 1019.63 1019.83 1019.99 1020.23 1020.39 1020.55 1020.67 1020.79 1020.91 1020.95 1020.95 1020.95 1020.95 1020.95 1020.91 1020.95 1021.03 1021.23 1021.39 1021.55 1021.67 1021.83 1022.11 1022.39 1022.71 1023.07 1023.39 1023.63 1023.75 1023.91 1023.99 1024.11 1024.23 1024.39 1024.55 1024.71 1024.83 1024.79 1024.67 1024.59 1024.67 1024.79 1024.91 1025.07 1025.23 1025.39 1025.55 1025.67 1025.87 1026.11 1026.39 1026.59 1026.67 1026.67
1015.39 1015.75 1016.11 1016.39 1016.71 1016.99 1017.31 1017.59 1017.83 1018.11 1018.35 1018.59 1018.83 1019.03 1019.27 1019.51 1019.67 1019.91 1020.11 1020.35 1020.47 1020.63 1020.79 1020.87 1020.95 1020.99 1021.03 1021.03 1020.95 1020.91 1020.87 1020.95 1021.15 1021.35 1021.51 1021.59 1021.79 1022.07 1022.39 1022.67 1023.03 1023.35 1023.63 1023.79 1023.95 1023.99 1024.11 1024.23 1024.35 1024.55 1024.75 1024.83 1024.75 1024.55 1024.51 1024.67 1024.79 1024.91 1025.07 1025.27 1025.39 1025.59 1025.79 1025.99 1026.23 1026.51 1026.71 1026.83 1026.83
1015.39 1015.71 1016.03 1016.31 1016.63 1016.91 1017.19 1017.51 1017.79 1018.03 1018.23 1018.47 1018.67 1018.91 1019.11 1019.39 1019.63 1019.83 1020.07 1020.23 1020.39 1020.55 1020.67 1020.83 1020.91 1020.99 1021.07 1021.07 1020.95 1020.83 1020.83 1020.91 1021.11 1021.27 1021.43 1021.55 1021.79 1022.07 1022.39 1022.67 1022.99 1023.35 1023.63 1023.83 1023.95 1024.07 1024.11 1024.23 1024.35 1024.55 1024.75 1024.87 1024.75 1024.51 1024.39 1024.67 1024.79 1024.91 1025.03 1025.19 1025.39 1025.55 1025.79 1026.07 1026.35 1026.59 1026.79 1026.91 1027.03
Wind_Speed
5 5 5 4 4 3 3 3 3 3 3 3 4 4 4 4 4 4 4 4 4 3 3 3 3 4 4 5 5 5 5 5 5 5 5 5 5 5 5 5 5 4 4 4 4 4 4 3 3 3 2 2 3 2 2 2 2 3 3 3 3 3 3 3 3 3 4 4 3
6 6 5 4 4 3 3 3 3 3 3 3 4 4 4 4 4 4 4 4 3 3 3 3 4 5 5 6 5 5 5 5 5 5 5 5 5 5 5 4 4 4 4 4 4 4 3 3 3 3 2 2 3 3 2 2 2 3 4 4 3 2 3 3 3 3 4 4 3
7 7 6 5 5 4 4 3 3 3 4 4 4 4 4 4 4 4 4 4 4 4 4 4 4 5 6 6 5 5 5 5 5 5 5 5 5 5 5 4 4 4 3 3 4 4 3 3 2 2 2 2 3 3 3 3 3 3 3 3 2 2 2 3 3 3 3 3 3
7 7 7 6 6 5 4 4 4 4 4 4 4 4 4 4 4 4 4 4 4 4 4 4 5 5 6 6 6 6 5 6 6 5 5 5 5 5 5 5 4 4 4 4 4 4 4 3 2 2 2 3 3 3 3 3 3 3 3 2 2 2 3 3 3 3 3 3 3
7 6 6 6 6 6 5 4 4 4 4 4 3 3 3 3 3 4 4 4 4 4 5 5 6 6 5 6 7 7 6 6 6 5 5 5 5 5 5 5 4 4 4 4 4 4 4 3 3 2 2 3 3 3 3 4 4 3 3 2 2 2 3 3 3 3 3 3 3
5 5 5 5 5 5 5 4 5 5 4 4 4 4 4 3 4 4 4 4 5 5 6 6 6 6 6 7 7 7 6 6 6 5 6 6 6 5 5 5 5 4 4 4 4 4 4 4 3 3 2 2 2 2 3 4 4 4 3 3 3 3 3 3 3 3 3 4 4
5 5 5 5 5 5 5 5 5 4 4 4 5 5 5 4 5 5 6 5 5 5 5 5 5 6 6 7 6 6 6 6 6 6 6 6 6 6 6 5 5 5 4 4 4 4 4 4 3 3 2 2 2 2 3 3 4 4 4 3 3 3 3 3 3 3 4 5 5
5 5 5 5 5 5 5 5 5 5 4 4 5 6 6 6 6 7 7 6 6 5 4 4 6 6 7 6 6 6 6 6 6 6 6 6 6 6 6 6 5 5 5 4 4 4 4 4 3 3 2 2 2 2 2 3 4 5 5 4 3 3 3 3 3 3 4 5 5
5 5 5 5 5 5 6 6 6 5 5 5 5 6 7 7 7 7 7 6 6 6 5 4 6 7 7 7 6 6 5 6 6 6 6 6 6 6 6 6 5 5 5 4 4 4 4 4 3 3 3 3 2 2 2 3 4 5 5 4 4 3 3 3 4 4 5 5 5
5 5 6 5 5 5 5 6 6 6 6 6 7 7 7 7 7 7 7 6 6 6 6 5 6 7 7 7 6 6 5 5 6 6 7 6 7 7 6 5 5 5 5 4 4 4 4 4 4 4 4 3 3 3 3 3 5 5 5 3 4 4 4 4 5 5 5 5 5
6 6 6 5 6 6 6 6 5 5 6 6 7 7 7 6 7 7 6 7 7 7 7 7 7 7 7 6 6 5 5 4 5 6 7 7 8 7 7 6 6 6 5 5 4 4 4 4 4 5 5 4 4 4 4 4 5 5 5 4 4 4 4 4 5 5 5 5 5
6 6 6 6 6 6 6 6 5 5 6 6 7 7 7 6 7 7 7 8 8 8 8 8 7 7 7 6 5 5 5 5 6 6 7 8 8 8 8 7 7 6 6 5 4 4 4 4 5 6 6 5 4 3 4 5 5 5 5 5 5 5 4 4 4 5 5 5 5
6 6 6 6 7 7 6 6 5 5 6 7 7 7 7 7 7 8 8 9 8 8 8 8 8 7 7 6 6 6 6 6 7 7 7 8 8 8 8 7 7 6 6 5 5 4 4 5 6 6 6 5 4 4 4 5 5 5 5 5 5 5 5 5 4 5 5 6 5
7 6 6 6 6 6 6 6 5 5 6 7 7 7 7 7 7 7 8 8 8 8 8 8 7 7 7 8 7 7 7 7 7 8 8 8 8 8 8 7 7 6 5 5 5 5 5 5 6 6 6 6 5 5 5 5 5 5 5 5 5 5 5 4 4 5 5 6 6
7 7 7 6 6 6 5 5 5 5 6 7 7 7 6 6 7 7 7 8 8 8 8 8 7 7 8 8 9 9 9 8 8 8 8 8 8 8 8 7 7 7 6 5 5 5 6 6 6 6 6 7 6 6 6 5 5 5 5 5 5 5 5 4 4 4 5 5 5
7 7 7 7 6 6 5 5 4 5 6 6 6 6 6 6 6 7 7 8 8 8 8 8 8 8 8 8 8 9 9 8 8 9 8 8 8 8 8 8 8 7 7 6 6 5 5 5 5 5 6 6 6 6 6 6 6 6 6 6 5 5 5 4 4 4 5 5 5
7 7 7 7 7 7 6 5 5 5 6 6 6 6 6 6 6 6 6 7 7 8 8 9 8 8 7 7 7 7 8 8 8 8 8 8 9 9 9 8 8 8 8 7 7 6 6 5 5 5 6 6 6 6 6 6 6 6 6 6 6 6 5 5 4 4 5 5 5
7 8 8 8 8 8 8 7 6 6 6 7 7 6 6 6 6 6 6 7 7 8 9 10 9 8 8 8 7 6 6 7 8 8 8 9 9 9 9 9 9 8 8 8 7 7 6 6 5 5 5 5 6 6 6 6 6 6 6 6 6 6 6 5 5 4 4 4 5
7 8 8 8 9 8 8 8 7 7 7 8 8 7 7 7 7 7 6 7 7 8 9 9 9 8 9 9 8 6 6 6 8 9 9 9 9 9 9 9 9 9 9 8 8 7 7 7 6 6 5 5 5 5 6 6 6 6 6 6 6 6 6 6 5 5 4 4 4
8 8 8 9 9 8 8 8 8 8 8 8 8 8 8 8 8 8 7 7 7 8 8 9 9 9 9 9 9 8 6 6 7 9 9 9 9 9 9 10 9 9 9 8 8 7 7 7 7 7 6 6 6 6 6 6 6 6 6 6 6 6 6 6 5 5 4 4 5
9 9 9 9 8 8 8 7 7 7 7 8 8 9 9 9 9 9 8 8 8 8 8 8 9 9 10 10 10 9 7 5 6 7 8 8 9 9 9 9 9 9 8 8 7 7 7 7 7 7 7 7 6 6 6 5 6 7 7 6 6 6 6 6 5 5 5 5 5
9 8 8 8 8 8 7 7 7 7 7 7 8 8 9 9 9 9 9 8 8 8 8 9 9 9 10 10 10 9 7 5 5 6 7 7 8 8 8 8 8 8 8 7 7 7 7 7 7 7 7 7 7 7 6 6 6 7 8 7 7 7 6 6 5 5 5 5 5
9 8 8 8 8 8 7 7 7 6 7 7 7 8 8 9 9 9 9 8 8 8 9 8 9 9 10 9 9 9 8 6 6 6 7 7 7 8 8 7 8 8 8 8 8 7 7 7 7 7 7 7 7 7 7 7 7 7 8 8 8 7 7 6 6 6 6 6 5
10 9 8 7 8 8 8 8 7 7 7 8 8 8 9 9 9 9 9 9 9 9 9 8 8 9 9 9 9 9 8 8 8 7 7 7 8 8 8 8 7 7 7 6 6 6 6 6 6 6 6 6 7 7 7 7 7 7 8 9 8 7 7 6 6 7 7 6 6
11 10 10 9 9 9 9 8 8 8 8 8 8 8 8 9 9 9 9 9 9 9 9 8 8 8 9 8 9 9 9 9 9 8 8 8 8 8 8 7 7 6 6 5 6 5 4 4 4 5 5 5 6 6 7 7 8 8 8 9 8 8 7 6 7 7 7 6 6
10 10 10 10 10 10 9 9 9 9 8 8 8 8 8 9 9 9 9 9 9 9 9 9 8 8 8 8 9 8 8 8 8 9 9 9 10 9 8 7 6 6 6 7 8 9 9 7 4 2 4 5 5 5 6 6 7 8 8 9 8 8 7 7 6 6 7 6 7
9 9 10 9 10 10 9 9 9 8 8 8 8 8 8 7 7 8 8 8 9 9 8 8 8 8 7 8 9 9 9 8 8 9 10 10 11 10 9 7 6 6 7 9 10 10 10 9 7 4 1 5 5 5 5 5 7 8 9 8 8 8 8 8 8 7 7 7 7
9 9 10 9 9 9 9 9 8 8 8 8 7 7 7 6 6 7 7 7 8 7 7 7 7 7 6 7 9 10 10 9 9 9 9 10 11 11 10 7 7 8 9 10 10 10 10 10 9 7 4 1 4 5 5 5 6 6 7 8 8 9 9 9 9 8 8 8 8
10 10 10 10 10 10 9 9 9 8 8 8 7 7 7 6 6 6 7 7 7 6 6 5 6 6 6 7 9 10 10 10 9 9 9 10 10 10 10 9 9 10 11 11 10 10 9 9 9 8 6 5 1 3 4 4 4 5 5 6 7 8 9 9 9 9 9 9 9
10 11 11 11 10 10 10 9 9 8 8 7 7 7 7 7 7 7 7 7 7 6 5 5 5 6 7 8 9 9 9 9 9 9 10 11 11 10 9 10 10 10 11 11 10 9 9 8 8 8 7 7 3 1 4 4 4 4 4 5 6 7 8 9 10 10 10 9 10
11 11 11 11 11 10 10 9 9 8 8 7 7 8 8 7 7 7 7 7 7 6 5 5 6 7 7 8 8 8 9 9 9 9 10 11 10 10 10 11 11 11 10 11 10 9 8 8 7 7 7 6 4 2 3 4 4 4 4 4 5 6 6 6 8 9 9 10 10
11 11 11 11 11 10 10 9 9 9 8 8 8 8 8 8 7 7 7 7 6 6 6 6 6 7 8 8 7 8 8 9 9 9 9 10 10 10 11 12 11 10 10 11 10 9 8 7 6 6 6 6 4 3 2 4 4 4 4 4 4 4 4 4 4 6 7 8 9
12 12 12 11 11 10 10 10 9 9 9 9 8 8 8 8 7 7 6 6 6 7 7 7 7 7 8 8 8 8 8 8 8 8 8 9 9 10 12 11 10 10 10 11 10 9 8 7 6 5 4 4 3 3 3 3 3 3 3 3 4 4 4 4 4 4 4 4 5
12 12 12 11 11 11 10 10 10 9 9 9 8 8 8 7 7 6 6 6 6 6 7 7 7 7 7 8 8 8 8 7 7 7 8 8 9 10 11 9 8 9 11 11 10 9 8 7 6 4 3 3 2 3 3 2 2 3 3 4 4 4 5 5 4 4 3 2 3
12 12 12 11 11 11 11 10 10 10 10 9 9 9 9 8 7 7 6 5 5 5 6 6 5 5 5 5 6 7 7 8 8 7 7 7 9 10 11 9 9 10 12 11 10 10 9 8 6 4 3 1 2 3 3 3 3 4 4 5 5 5 5 5 4 4 3 2 3
13 13 13 12 11 11 11 11 11 11 10 10 10 10 10 9 8 7 6 4 4 5 6 5 5 4 4 5 5 5 6 7 7 7 7 7 9 10 11 10 10 11 11 11 10 10 9 8 7 5 3 1 2 3 3 3 3 4 5 6 6 6 5 5 5 4 4 4 3
13 13 13 12 12 12 12 12 12 12 12 11 11 11 11 10 9 8 7 5 5 5 6 6 6 5 5 6 5 5 5 7 7 7 7 7 9 10 11 10 10 10 10 11 10 10 9 9 8 6 4 2 3 4 3 3 3 4 5 6 6 6 5 5 5 6 6 6 6
13 13 13 13 13 13 13 13 13 13 13 12 12 12 11 11 10 9 8 6 6 7 7 7 7 7 7 7 7 7 8 8 8 8 9 9 10 11 12 11 10 9 9 10 10 10 9 9 8 7 5 3 4 4 4 3 4 4 5 5 5 5 5 5 5 6 6 7 7
13 13 13 13 13 13 14 14 14 13 13 13 13 12 12 11 10 9 9 8 8 8 8 8 8 8 8 8 8 9 9 9 9 9 9 10 11 12 13 12 10 9 9 10 10 10 9 9 8 7 6 4 5 4 3 4 4 5 5 5 5 5 5 5 5 5 5 6 8
13 13 13 13 14 14 14 14 14 14 13 13 13 13 12 11 10 10 9 8 8 9 9 9 10 9 8 8 8 9 10 10 9 8 8 9 11 13 14 12 11 10 9 10 10 10 10 9 9 8 6 4 5 4 3 4 4 5 5 5 5 5 5 5 5 5 4 5 7
13 13 14 14 14 14 14 14 14 14 13 13 13 12 12 11 10 10 10 9 9 9 9 9 10 10 9 8 8 9 10 10 9 8 8 8 11 13 13 12 11 10 10 10 11 11 10 10 9 8 6 4 5 3 3 4 4 5 6 6 6 5 5 6 5 5 4 4 5
Wind_Direction
147 143 143 148 154 163 169 164 152 151 152 152 151 149 148 149 152 153 154 157 158 153 147 140 133 129 129 132 131 128 124 119 117 117 118 119 120 122 123 123 124 126 126 123 117 111 106 104 101 99 98 98 94 87 76 57 61 67 70 71 74 78 78 73 60 46 36 31 28
153 146 141 144 152 159 159 145 135 137 143 145 146 147 148 148 149 151 151 152 146 139 133 128 127 130 133 134 132 128 125 123 123 122 121 120 120 120 119 118 119 120 121 120 116 112 109 109 110 112 113 113 110 109 105 95 80 74 72 69 69 72 73 71 60 49 39 30 22
152 146 144 147 154 156 152 139 140 142 143 142 145 146 145 144 145 146 144 139 131 127 127 128 130 133 135 134 132 130 130 130 129 126 123 120 118 115 112 109 109 109 110 111 109 108 108 109 112 116 120 120 119 118 115 106 94 85 79 73 68 66 67 66 56 48 41 33 25
148 147 149 155 159 157 150 142 145 147 146 142 142 141 138 137 137 135 131 125 125 126 130 132 134 135 135 135 136 136 136 136 133 129 125 122 121 119 116 115 115 113 111 107 108 110 113 116 114 110 108 108 110 112 112 110 102 96 89 81 73 69 67 67 58 50 43 38 32
145 146 150 156 157 151 141 139 146 148 144 138 136 132 128 125 125 125 125 126 131 134 135 135 135 135 136 138 139 139 139 138 135 132 129 127 125 124 123 122 120 117 113 110 113 117 120 119 107 96 91 92 97 107 114 116 110 105 99 91 79 72 71 71 65 57 49 40 35
139 140 143 149 149 141 135 142 149 147 140 134 132 130 127 126 128 131 133 134 133 131 129 128 130 133 136 140 140 140 140 139 137 135 133 131 130 128 125 123 120 117 115 116 119 118 114 106 95 87 84 86 85 92 103 113 112 109 103 92 81 74 71 71 67 62 54 46 39
137 136 140 148 146 140 138 148 148 141 134 134 137 137 136 137 138 138 137 132 127 125 125 126 132 137 140 141 140 141 143 143 141 139 137 135 134 131 129 127 126 126 126 127 126 120 111 101 98 95 92 89 81 75 79 101 111 110 105 97 87 79 76 74 72 67 61 56 48
139 141 145 153 149 145 144 151 146 140 138 143 144 144 143 144 143 140 135 129 127 128 130 134 140 141 141 141 142 144 146 146 143 142 139 137 135 133 132 132 132 133 134 135 132 126 119 111 111 109 103 91 80 70 70 89 104 108 106 103 98 93 89 87 83 78 72 67 61
145 146 149 153 150 147 147 149 145 144 146 151 149 148 147 147 145 140 136 132 133 135 137 141 143 142 141 140 143 146 149 150 146 143 140 137 137 136 135 134 135 136 137 137 133 128 122 113 110 106 101 93 88 81 77 83 95 101 104 105 108 108 105 100 94 88 83 77 72
151 150 151 153 150 147 145 145 144 147 150 153 151 148 146 146 144 141 138 136 137 140 142 145 143 141 140 141 145 148 149 148 145 143 141 140 139 138 138 139 140 139 138 137 131 122 113 104 101 100 98 97 97 91 83 79 85 90 93 98 102 104 104 102 100 96 92 85 79
153 152 153 153 151 147 144 146 147 150 153 154 149 147 146 146 143 140 137 137 140 143 146 145 143 141 140 142 145 147 147 146 144 145 145 145 144 143 143 144 144 142 140 136 126 114 107 103 105 105 104 103 100 94 88 84 85 86 87 86 84 83 86 91 98 100 98 91 83
152 152 153 152 151 150 149 151 154 155 155 151 147 147 149 149 143 139 138 141 143 145 145 145 143 141 141 142 145 146 147 148 148 148 148 149 148 147 147 147 145 142 137 129 120 113 111 114 116 115 113 110 107 103 100 97 94 93 92 90 83 77 73 73 84 92 96 94 86
152 153 153 153 152 153 155 156 158 158 155 150 150 151 152 151 144 142 143 146 146 145 145 146 145 144 144 147 149 151 153 155 155 154 153 153 151 150 149 146 143 137 131 122 118 117 119 123 124 123 122 120 119 116 112 107 102 99 96 92 87 81 75 69 72 80 89 93 88
154 155 156 156 155 157 158 159 160 158 155 151 154 155 155 151 148 148 149 150 147 145 145 146 147 149 150 153 154 157 159 160 160 158 157 155 153 151 148 144 140 133 126 120 121 123 126 129 129 128 127 126 127 124 120 113 107 102 97 93 89 84 79 72 71 78 86 92 89
156 158 159 158 159 161 162 161 161 159 157 155 159 159 157 153 153 154 154 151 147 146 147 149 151 153 155 157 159 160 162 163 162 161 159 157 154 150 147 143 139 134 129 126 126 128 131 132 132 131 130 130 130 128 123 116 111 106 102 98 95 90 84 76 73 77 83 89 88
159 161 162 162 164 166 166 164 162 161 160 159 162 161 158 155 157 158 156 152 149 148 150 152 153 154 155 158 160 162 163 164 164 162 160 157 154 151 148 145 142 139 135 133 131 132 134 134 133 132 132 132 130 127 122 116 113 110 108 105 102 97 91 81 74 72 75 82 84
164 166 166 166 169 171 170 167 166 166 165 163 164 162 158 156 158 160 159 155 152 153 155 155 154 154 155 158 161 162 163 165 164 162 160 158 156 153 151 148 145 143 140 138 137 137 137 136 134 133 131 129 126 123 120 117 116 115 112 109 106 103 98 91 80 73 71 74 79
171 171 171 172 174 174 173 170 171 171 170 166 166 163 159 157 160 162 161 159 157 157 157 155 153 154 155 158 161 163 164 165 165 163 161 159 157 155 152 150 147 145 144 142 141 141 141 140 137 133 128 124 123 122 122 122 120 118 115 111 110 109 107 103 95 85 78 76 78
176 177 177 178 179 178 176 172 174 175 173 169 168 165 162 160 161 163 163 162 161 159 157 154 153 154 157 159 161 163 165 166 165 164 162 160 158 156 153 151 149 147 146 145 144 143 143 143 141 136 130 125 125 126 127 126 123 119 115 111 110 110 109 107 103 98 92 88 83
180 180 181 182 183 182 179 177 177 177 175 169 169 167 164 162 163 164 166 166 164 161 158 154 154 156 158 160 161 163 165 166 165 163 162 160 159 156 154 151 149 147 146 144 143 143 144 145 144 140 137 133 133 133 132 129 125 121 116 111 109 108 108 108 107 105 101 97 92
182 182 182 182 184 183 182 180 180 178 174 169 169 167 165 163 164 166 168 167 165 162 159 157 157 158 159 160 162 163 164 165 164 162 160 159 158 156 153 149 148 146 145 142 143 144 146 147 147 144 142 141 140 140 138 136 132 128 123 119 117 116 115 115 114 112 109 105 99
182 182 181 181 182 182 181 181 181 178 173 169 169 167 165 164 165 167 167 165 164 164 162 161 160 161 161 162 161 161 161 161 160 159 157 157 155 152 148 144 144 142 140 138 142 145 149 150 150 149 148 147 147 147 147 146 142 137 132 129 129 128 126 124 124 122 117 111 105
181 181 182 182 180 178 177 178 178 175 172 170 170 167 166 165 166 166 165 164 165 166 165 164 163 163 163 162 160 158 157 156 157 156 154 153 149 146 143 140 141 141 142 146 149 150 151 152 153 154 154 154 154 155 156 156 151 144 139 136 135 133 132 131 132 130 125 118 115
180 180 181 182 180 177 176 176 175 174 173 174 173 171 168 167 167 166 166 166 167 168 168 165 165 165 164 162 159 157 156 156 156 155 153 151 147 144 143 142 144 143 141 138 138 144 152 157 157 159 160 160 160 160 161 162 157 149 143 140 137 135 135 138 138 136 132 127 124
181 179 178 179 178 177 176 177 176 176 176 177 176 173 171 170 169 168 168 168 169 169 168 165 164 164 164 161 158 157 156 157 157 155 153 151 148 146 146 147 145 135 119 97 89 94 110 132 151 160 162 161 163 164 165 166 160 153 146 143 140 139 139 141 141 139 136 132 123
180 178 178 178 176 175 176 178 177 177 177 177 176 175 173 173 171 170 169 169 170 169 168 165 165 164 163 161 158 157 157 158 158 156 154 153 151 150 151 152 144 126 107 97 92 86 82 77 78 126 167 168 165 166 167 168 163 157 151 147 144 143 144 146 145 143 140 134 122
177 176 176 176 174 174 175 177 175 175 176 177 176 175 174 174 172 171 170 170 170 169 167 165 165 164 162 161 159 159 160 160 160 159 157 156 155 155 156 155 141 122 108 106 100 94 87 77 63 51 139 165 163 166 171 170 165 160 155 152 150 150 151 152 153 152 149 143 133
176 174 174 174 173 173 174 174 173 174 174 175 174 172 171 170 170 169 169 170 170 169 167 166 165 164 163 162 162 163 163 163 162 161 160 159 158 159 159 152 129 115 111 112 105 98 91 83 68 52 33 268 180 174 171 172 167 164 161 158 158 159 160 161 161 160 158 154 146
175 173 173 174 173 173 173 173 174 174 173 172 169 166 166 166 167 167 168 170 171 170 169 167 166 165 165 165 165 165 165 165 164 163 162 161 161 161 157 138 119 113 112 112 106 100 93 86 72 56 33 345 217 176 170 171 167 167 167 166 167 168 168 168 167 165 163 159 153
175 174 174 176 174 173 173 175 173 171 169 166 163 162 163 165 166 168 171 174 176 175 171 167 167 169 169 167 165 165 166 167 167 165 164 163 164 162 150 125 117 115 114 111 107 103 97 89 73 56 38 16 347 230 179 163 169 173 175 175 177 177 175 171 167 165 163 161 156
175 175 175 176 175 174 174 173 170 168 165 161 161 162 164 167 169 172 175 178 178 174 169 168 172 173 172 168 165 166 167 167 167 167 166 166 166 156 136 116 116 115 113 110 109 106 103 96 79 60 43 28 343 282 190 163 174 180 183 181 180 178 173 165 161 161 161 160 157
175 175 176 176 175 174 172 170 168 165 163 160 162 164 167 171 173 176 178 180 177 173 171 175 178 177 174 169 167 167 167 166 167 167 167 168 163 144 125 113 115 114 113 112 111 110 108 102 86 67 46 28 341 300 239 174 179 181 179 169 162 155 146 136 141 149 155 158 157
176 176 176 176 174 172 169 167 166 164 162 161 164 166 169 173 175 177 180 182 180 177 177 180 182 180 175 171 169 168 167 166 165 165 167 168 154 134 119 114 115 115 115 116 116 115 114 109 98 78 52 26 337 298 261 189 180 170 157 138 130 124 120 118 120 129 140 151 152
176 176 176 175 172 170 168 167 166 164 162 162 165 167 170 173 175 179 182 185 184 182 181 182 184 181 176 171 168 166 164 162 161 163 166 166 144 127 118 117 117 119 121 123 123 124 124 122 115 101 73 30 324 284 252 190 166 142 126 114 108 103 101 101 102 105 111 124 127
175 175 176 174 171 169 167 167 166 164 162 163 167 169 172 175 178 181 183 185 184 181 180 180 181 179 173 168 165 161 158 155 156 161 164 160 136 123 117 117 118 124 128 131 133 133 134 134 129 121 105 64 290 265 238 183 155 133 121 114 106 100 96 93 94 92 90 87 100
174 174 174 172 169 167 167 167 166 165 164 165 168 171 173 177 180 182 182 181 179 177 174 173 173 171 167 161 155 150 147 147 149 155 158 153 133 123 119 120 123 130 136 140 141 142 141 141 138 134 129 141 251 247 227 178 152 134 125 120 115 111 107 101 94 82 67 51 52
172 172 171 169 168 167 166 167 167 167 167 168 171 172 174 175 177 178 178 176 176 174 171 169 171 170 167 159 151 145 141 140 145 153 158 154 137 129 125 125 129 136 143 149 149 148 148 147 146 146 149 177 229 230 213 170 149 136 130 126 123 120 115 106 92 75 59 42 26
170 169 168 166 166 166 166 167 168 169 170 170 172 173 173 173 174 174 175 175 175 173 171 170 173 173 169 161 152 147 146 146 151 158 163 161 145 136 131 131 135 141 149 157 156 155 154 154 155 157 166 199 224 220 199 161 149 141 136 133 130 128 122 109 93 78 65 51 34
165 165 165 164 164 165 166 168 170 171 171 171 172 172 173 173 173 172 172 174 174 172 171 173 176 175 172 165 159 155 153 154 158 164 167 164 149 139 135 135 139 146 155 163 162 161 161 161 163 168 180 216 231 219 186 156 152 147 143 139 137 134 127 112 100 90 79 66 53
161 161 162 163 163 165 166 169 170 171 171 171 172 173 173 174 171 169 169 171 172 172 173 177 178 177 174 170 164 160 157 157 160 166 168 162 146 138 135 136 141 148 158 167 168 167 167 167 170 176 189 230 242 223 178 157 157 154 150 146 145 141 132 119 110 105 97 84 65
158 160 161 162 163 164 166 168 170 171 171 172 173 173 173 171 168 167 168 172 174 174 176 178 179 178 176 173 168 162 157 156 160 164 165 157 142 137 136 137 142 149 160 170 172 172 171 171 176 181 194 238 259 236 180 161 163 161 158 155 153 148 140 128 122 119 116 108 87